Walla Walla, WA
on Thursday, November 15, 2012

Thursday
Previous Day Next Day
Daily Summary
 ActualAverage (KPDT)Record (KPDT)
Temperature
Mean Temperature °F 42°F  
Max Temperature 43°F 49°F 71°F (1896)
Min Temperature 35°F 34°F -6°F (1955)
Degree Days
Heating Degree Days 26 23  
Month to date heating degree days 315  
Since 1 July heating degree days 857  
Cooling Degree Days 0 0  
Month to date cooling degree days 0  
Year to date cooling degree days 636  
Moisture
Dew Point 38°F   
Average Humidity 95    
Maximum Humidity 100    
Minimum Humidity 81    
Precipitation
Precipitation 0.01 in 0.05 in 0.68 in (1941)
Month to date precipitation 0.75  
Year to date precipitation 10.42  
Snow
Snow 0.00 in 0.00 in 1.10 in (1958)
Month to date snowfall 0.3  
Year to date snowfall 8.1  
Since 1 July snowfall 0.4  
Snow Depth in   
Wind
Wind Speed 4 mph   
Max Wind Speed 7 mph   
Max Gust Speed mph   
Visibility 3 miles   
Events Fog   

Key: T is trace of precipitation, MM is missing value
Source: NWS Daily Summary
Time(PST)TemperatureDew PointHumidity Pressure Visibility Wind DirectionWind SpeedGust SpeedPrecipitationEvents Conditions
12:03 AM 42.8°F 41.0°F 93% 30.32 in 1.8 miles NNW 4.6 mph - N/A   Overcast
12:40 AM 41.0°F 39.2°F 93% 30.31 in 2.0 miles West 5.8 mph - N/A   Overcast
12:48 AM 41.0°F 39.2°F 93% 30.31 in 1.8 miles West 5.8 mph - N/A   Overcast
12:53 AM 41.0°F 39.9°F 96% 30.33 in 1.8 miles West 4.6 mph - N/A   Overcast
1:11 AM 39.2°F 39.2°F 100% 30.31 in 2.0 miles West 3.5 mph - N/A   Overcast
1:18 AM 39.2°F 39.2°F 100% 30.31 in 1.8 miles WSW 3.5 mph - N/A   Overcast
1:53 AM 39.9°F 39.9°F 100% 30.34 in 1.2 miles Calm Calm - N/A   Overcast
2:37 AM 39.2°F 39.2°F 100% 30.30 in 0.2 miles South 5.8 mph - N/A Fog Fog
2:53 AM 39.0°F 39.0°F 100% 30.32 in 0.2 miles South 5.8 mph - N/A Fog Fog
3:53 AM 37.9°F 37.9°F 100% 30.30 in 0.2 miles South 5.8 mph - N/A Fog Fog
4:53 AM 37.0°F 37.0°F 100% 30.30 in 0.2 miles South 4.6 mph - N/A Fog Fog
5:53 AM 37.0°F 37.0°F 100% 30.29 in 0.2 miles SSW 5.8 mph - N/A Fog Fog
6:53 AM 36.0°F 36.0°F 100% 30.27 in 0.2 miles Calm Calm - N/A Fog Fog
7:07 AM 35.6°F 35.6°F 100% 30.25 in 0.5 miles SSW 4.6 mph - N/A Fog Fog
7:15 AM 35.6°F 35.6°F 100% 30.25 in 0.2 miles SSW 3.5 mph - N/A Fog Fog
7:53 AM 36.0°F 36.0°F 100% 30.27 in 0.2 miles SW 4.6 mph - N/A Fog Fog
8:12 AM 35.6°F 35.6°F 100% 30.24 in 0.5 miles Calm Calm - N/A Fog Fog
8:53 AM 37.0°F 37.0°F 100% 30.25 in 0.5 miles Calm Calm - N/A Fog Fog
9:08 AM 37.4°F 35.6°F 93% 30.22 in 2.0 miles Calm Calm - N/A   Overcast
9:16 AM 37.4°F 35.6°F 93% 30.22 in 8.0 miles Calm Calm - N/A   Overcast
9:53 AM 37.9°F 37.0°F 97% 30.23 in 10.0 miles NNE 3.5 mph - N/A   Overcast
10:53 AM 39.9°F 37.9°F 93% 30.20 in 3.0 miles Variable 3.5 mph - N/A   Overcast
11:20 AM 41.0°F 37.4°F 87% 30.16 in 5.0 miles NW 6.9 mph - N/A   Overcast
11:53 AM 41.0°F 37.9°F 89% 30.17 in 5.0 miles WNW 4.6 mph - N/A   Overcast
12:53 PM 42.1°F 37.9°F 85% 30.15 in 10.0 miles Calm Calm - N/A   Overcast
1:49 PM 42.8°F 37.4°F 81% 30.11 in 10.0 miles Calm Calm - N/A   Overcast
1:53 PM 43.0°F 39.0°F 86% 30.14 in 10.0 miles WSW 4.6 mph - N/A   Overcast
2:53 PM 42.1°F 39.0°F 89% 30.12 in 9.0 miles WSW 5.8 mph - N/A   Overcast
3:53 PM 41.0°F 39.0°F 93% 30.11 in 7.0 miles WSW 5.8 mph - N/A   Overcast
4:53 PM 39.9°F 37.9°F 93% 30.10 in 8.0 miles WSW 5.8 mph - N/A   Overcast
5:22 PM 39.2°F 39.2°F 100% 30.07 in 7.0 miles West 6.9 mph - N/A   Overcast
5:53 PM 39.9°F 37.9°F 93% 30.11 in 7.0 miles WSW 6.9 mph - N/A   Overcast
6:53 PM 39.9°F 39.0°F 97% 30.09 in 4.0 miles SSW 3.5 mph - N/A   Overcast
7:53 PM 39.9°F 39.0°F 97% 30.07 in 2.5 miles South 3.5 mph - N/A   Overcast
8:17 PM 39.2°F 37.4°F 93% 30.05 in 1.8 miles South 3.5 mph - N/A   Overcast
8:53 PM 39.0°F 39.0°F 100% 30.07 in 1.2 miles Calm Calm - N/A   Overcast
9:53 PM 39.9°F 39.0°F 97% 30.07 in 1.2 miles Calm Calm - 0.01 in   Overcast
10:38 PM 39.2°F 37.4°F 93% 30.03 in 2.0 miles Calm Calm - N/A   Overcast
10:48 PM 39.2°F 37.4°F 93% 30.03 in 1.5 miles West 3.5 mph - N/A   Overcast
10:53 PM 39.0°F 37.9°F 96% 30.05 in 1.5 miles Calm Calm - N/A   Overcast
11:17 PM 39.2°F 37.4°F 93% 30.02 in 2.5 miles Calm Calm - N/A   Overcast
11:25 PM 39.2°F 37.4°F 93% 30.02 in 3.0 miles Calm Calm - N/A   Overcast
11:53 PM 39.0°F 37.9°F 96% 30.05 in 4.0 miles Calm Calm - N/A   Overcast
Moon Phase
Nov. 15 Nov. 20 Nov. 28 Dec. 06 Dec. 13
Sunrise:06:54 AM (PST) Moon Rise:08:59 AM (PST)11/15
Sunset:04:20 PM (PST) Moon Set:06:13 PM (PST)11/15

Copyright © 2014 The Weather Underground, Inc.